Location: Winnipeg
(49.8830°N, 97.1670°W)
Time: 21:22:43
(UTC-06:00)

Envisat - Pass Details

Date: 07 December 2022
Orbit: 763 x 765 km, 98.2° (Epoch: 28 January)

Event Time Altitude Azimuth Distance (km) Brightness Sun altitude
Rises 04:10:25 0° 19° (NNE) 3,245 6.6 -37.8°
Reaches altitude 10° 04:12:53 10° 27° (NNE) 2,314 5.8 -37.4°
Enters shadow 04:14:08 17° 35° (NE) 1,876 5.3 -37.2°
